Regional Weather Roundup
Issued by NWS

Home | Current Version | Previous Version | Text Only | Print | Product List | Glossary Off
Versions: 1 2 3 4 5 6 7 8 9 10 11 12 13 14 15 16 17 18 19 20 21 22 23

000
ASUS45 KTFX 170510
RWRMT
MONTANA REGIONAL WEATHER ROUNDUP
NATIONAL WEATHER SERVICE GREAT FALLS MT
1000 PM MST MON JAN 16 2017

NOTE: "FAIR" INDICATES FEW OR NO CLOUDS BELOW 12000 FEET WITH NO
SIGNIFICANT WEATHER AND/OR OBSTRUCTIONS TO VISIBILITY.

MTZ001>007-043-170600-
WEST OF THE DIVIDE

CITY           SKY/WX    TMP DP  RH WIND       PRES   REMARKS
KALISPELL      CLOUDY    10   9  95 CALM      30.21F FOG
MISSOULA       PTCLDY     1  -1  91 CALM      30.24F
BUTTE          CLOUDY     1  -5  75 SE5       30.12F
MULLAN PASS    PTCLDY    22  16  78 S7        30.06F WCI  13
ANACONDA         N/A     12   3  67 W3        30.12F
DEER LODGE       N/A      5   0  78 CALM      30.17F
EUREKA           N/A     12   7  79 CALM      30.19F
HAMILTON         N/A      7   1  78 E3        30.19F
RONAN            N/A      0  -6  75 MISG      30.22R VSB 0
$$

MTZ008-052>055-170600-
SOUTHWEST MONTANA

CITY           SKY/WX    TMP DP  RH WIND       PRES   REMARKS
BOZEMAN        CLOUDY     3  -1  83 CALM      30.13S
DILLON         CLOUDY    19   3  49 S10       30.12F WCI   7
W YELLOWSTONE  CLOUDY    -9 -13  84 CALM      30.19F
ENNIS          CLEAR     18   7  62 S7        30.16F WCI   8
TWIN BRIDGES     N/A      9  -2  61 E3        30.10F
$$

MTZ009-010-012-014-046-048-049-054-170600-
EAST SLOPES AND CENTRAL MONTANA

CITY           SKY/WX    TMP DP  RH WIND       PRES   REMARKS
CUT BANK       CLEAR     38  19  46 W33       29.80F WCI  25
GREAT FALLS    CLOUDY    31  18  58 SW23      29.92F WCI  18
MALMSTROM AFB  CLOUDY    31  21  67 SW21      29.91F WCI  18
HELENA         CLOUDY     9   1  70 SW3       30.14S
AUGUSTA          N/A     35  15  43 SW14      29.90F WCI  25
BOWMANS CRNR     N/A     27  15  61 S30       29.91F WCI  10
CHOTEAU          N/A     37  18  44 SW10      29.89F WCI  30
CONRAD           N/A     22  16  78 S6        29.88F WCI  15
FAIRFIELD        N/A     31  17  57 S28       29.88F WCI  16
POWER            N/A     31  19  60 S21       29.89F WCI  19
RAYNESFORD       N/A     36  18  47 SW9       29.92F WCI  29
ULM              N/A     31  20  63 MISG      29.95F
$$

MTZ011-013-016-021-045-047-050-051-170600-
NORTH CENTRAL MONTANA

CITY           SKY/WX    TMP DP  RH WIND       PRES   REMARKS
HAVRE          CLOUDY    24  16  71 SW24      29.85F WCI   8
LEWISTOWN      CLOUDY    21  10  62 SE6       29.92F WCI  13
N BAR RANCH      N/A     25  10  54 VRB3      29.93F
CHINOOK          N/A     10   7  85 E3        29.89F
DENTON           N/A     21  13  73 S10       29.88S WCI   9
FORT BENTON      N/A     34  19  55 MISG      29.90F
GEYSER           N/A     35  18  50 W20G26    29.89F WCI  24
GRASS RANGE      N/A     28  14  54 W13       29.89F WCI  18
JUDITH GAP       N/A     21  12  66 S16       29.93F WCI   7
ROY              N/A     35  15  43 MISG      29.90F
STANFORD         N/A     30  16  56 CALM      29.91S
WINIFRED         N/A     33  18  53 SW10      29.90S WCI  25
$$

MTZ017>020-022>027-061-062-170600-
NORTHEAST MONTANA

CITY           SKY/WX    TMP DP  RH WIND       PRES   REMARKS
GLASGOW        CLOUDY    10   6  84 SE12      29.94F WCI  -5
JORDAN           N/A     13   7  77 S7        29.95F WCI   3
SIDNEY         CLOUDY    11   7  84 S7        30.04F WCI   0
WOLF POINT     CLOUDY     3  -2  79 NE3       30.00F
PLENTYWOOD       N/A     10   7  85 E7        29.96F WCI   0
POPLAR           N/A     10   9  92 CALM      30.01F
$$

MTZ028>42-056>058-170600-
SOUTHCENTRAL AND SOUTHEAST MONTANA

CITY           SKY/WX    TMP DP  RH WIND       PRES   REMARKS
BAKER          CLOUDY     6   1  80 CALM      30.05F
BILLINGS       CLOUDY    22   6  50 SW25G33   30.00F WCI   5
LIVINGSTON     CLOUDY    31  13  47 W28G37    30.02F WCI  17
MILES CITY     CLOUDY    11   3  70 S13       30.04F WCI  -4
BIG TIMBER     CLEAR     34  12  40 W24G32    30.00S WCI  21
FORSYTH          N/A      9   5  85 CALM      30.03F
HARLOWTON        N/A     30  13  51 W17       29.97S WCI  18
LAUREL           N/A     18   4  54 S18       29.99F WCI   2
$$

REGIONAL REPORTS...DAKOTAS

CITY           SKY/WX    TMP DP  RH WIND       PRES   REMARKS
WILLISTON      CLOUDY     9   7  92 SW3       30.03F
MINOT          CLOUDY    18  13  80 SW16      30.00F WCI   3
DICKINSON      CLOUDY    12   8  84 W5        30.02S
BEACH            N/A     18   9  68 SE5       30.05F
CROSBY           N/A     12   9  85 S21       29.99F WCI  -6
TIOGA            N/A     12  12 100 SW6       30.01F WCI   3
WATFORD CITY     N/A      7   5  92 CALM      30.04F
BISMARCK       CLOUDY     9   6  88 NW8       30.07F WCI  -3
GRAND FORKS    CLOUDY     4  -1  80 SW6       30.02S WCI  -7
FARGO          CLOUDY     6   4  91 SW5       30.03S
BUFFALO SD       N/A     17   8  67 W8        29.98F WCI   7
RAPID CITY     CLOUDY    16   8  71 CALM      30.06F
$$

REGIONAL REPORTS...WYOMING/IDAHO/WASHINGTON

CITY           SKY/WX    TMP DP  RH WIND       PRES   REMARKS
GILLETTE       CLOUDY    18   8  65 SE6       30.05F WCI  10
SHERIDAN       CLOUDY     8   2  76 S9        30.03F WCI  -5
BUFFALO WY     CLOUDY    23   6  48 SW6       30.02S WCI  16
YELLOWSTONE LA   N/A     -8 -11  86 CALM      30.17F
IDAHO FALLS    CLOUDY    -4  -7  87 NE3       30.30F
SALMON         CLOUDY   -15 -17  91 CALM      30.44F
BOISE          CLEAR      3   0  87 NW3       30.41F FOG
SPOKANE        PTCLDY     7   5  91 CALM      30.18F FOG
$$

REGIONAL REPORTS...ALBERTA

CITY           SKY/WX    TMP DP  RH WIND       PRES   REMARKS
EDMONTON       PTCLDY    39  23  52 SW8       29.38F
CALGARY        PTCLDY    46  27  46 SW7       29.62F
LETHBRIDGE     MOCLDY    37  27  65 SW26G37   29.73F WCI  26
MEDICINE HAT   CLEAR     37  23  56 SW17G24   29.72F WCI  28
WATERTON GATE    N/A     39  16  38 SW20G28     N/A  WCI  30
CARDSTON         N/A     39  23  52 S7          N/A
ONEFOUR          N/A     14  10  85 E14         N/A  WCI  -1
$$

REGIONAL REPORTS...SASKATCHEWAN

CITY           SKY/WX    TMP DP  RH WIND       PRES   REMARKS
SWIFT CURRENT  CLEAR     25  18  74 SW24G32   29.73F WCI   9
REGINA         PTCLDY    12   9  85 SE12      29.87F WCI  -2
SASKATOON      CLEAR     25  18  74 S15       29.71F WCI  12
VAL MARIE        N/A      5   1  85 W3          N/A
ASSINIBOIA       N/A     27  21  80 S10         N/A  WCI  17
$$




USA.gov is the U.S. government's official web portal to all federal, state and local government web resources and services.